This is the latest recevied weather packets stored in our database for station/object KA3BQE-13. If no packets are shown the sender has not sent any weather packets the latest 10 day(s).
| Time | Temp. | Humidity | Pressure | Rain* | Wind** | Luminosity | Snow |
|---|---|---|---|---|---|---|---|
| 1778015211 | 10.56° C | 81% | 1011.4 hPa | 0 mm | - | 289 W/m² | - |
| 1778014908 | 10° C | 83% | 1011.4 hPa | 0 mm | - | 241 W/m² | - |
| 1778014605 | 10° C | 82% | 1011.8 hPa | 0 mm | - | 172 W/m² | - |
| 1778014302 | 10° C | 85% | 1012 hPa | 0 mm | - | 187 W/m² | - |
| 1778013994 | 10° C | 86% | 1012 hPa | 0 mm | - | 185 W/m² | - |
| 1778013691 | 10° C | 84% | 1011.9 hPa | 0 mm | - | 163 W/m² | - |
| 1778013382 | 10° C | 87% | 1011.9 hPa | 0 mm | - | 130 W/m² | - |
| 1778013079 | 10° C | 86% | 1012.1 hPa | 0 mm | - | 150 W/m² | - |
| 1778012775 | 10° C | 83% | 1011.9 hPa | 0 mm | - | 179 W/m² | - |
| 1778012471 | 10° C | 87% | 1012 hPa | 0 mm | - | 173 W/m² | - |
| 1778012168 | 10° C | 85% | 1012.1 hPa | 0 mm | - | 228 W/m² | - |
| 1778011865 | 10.56° C | 88% | 1012.2 hPa | 0.51 mm | - | 228 W/m² | - |
| 1778011557 | 9.44° C | 87% | 1012.3 hPa | 0.51 mm | - | 258 W/m² | - |
| 1778011254 | 9.44° C | 85% | 1012.3 hPa | 0 mm | - | 164 W/m² | - |
| 1778010950 | 9.44° C | 88% | 1012.4 hPa | 0.51 mm | - | 170 W/m² | - |
| 1778010648 | 9.44° C | 89% | 1012.3 hPa | 1.27 mm | - | 212 W/m² | - |
| 1778010345 | 9.44° C | 88% | 1012.2 hPa | 1.27 mm | - | 157 W/m² | - |
| 1778010041 | 9.44° C | 88% | 1012.2 hPa | 1.27 mm | - | 149 W/m² | - |
| 1778009738 | 9.44° C | 88% | 1012.4 hPa | 1.27 mm | - | 133 W/m² | - |
| 1778009435 | 9.44° C | 86% | 1012.3 hPa | 1.27 mm | - | 133 W/m² | - |
| 1778009134 | 10° C | 85% | 1012.5 hPa | 1.27 mm | - | 121 W/m² | - |
| 1778008831 | 10° C | 83% | 1012.3 hPa | 1.78 mm | - | 108 W/m² | - |
| 1778008529 | 10.56° C | 82% | 1012.3 hPa | 0.51 mm | - | 96 W/m² | - |
| 1778008227 | 11.11° C | 83% | 1012.2 hPa | 0.51 mm | - | 88 W/m² | - |
| 1778007926 | 11.11° C | 82% | 1012.3 hPa | 0.51 mm | - | 96 W/m² | - |
* Rain latest hour (hover to see other rain measurements)
** Current wind speed in m/s (hover to see current wind gust speed)